Content
SEND FEEDBACK

Daily
Averages
Monthly
Summary
France

CAEN, FRANCE


Home > Europe > France
Elevation: 220 feet     Latitude: 49 11N     Longitude: 000 27W

WEATHER
 
SELECT A DAY
Number of Records: 215,205;   Date Range: 7/1/96 - 7/23/14
 
SHARE

PRINT THIS DATA

[ ← Previous Day ]
WEATHER ALMANAC - MARCH 16, 2013
[ Next Day → ]
[ °C ]   °F
Weather ElementAverageHighLow
Temperature41.5 °F44.6 °F (4:00 pm)39.2 °F (10:30 pm)
Dewpoint36.7 °F39.2 °F (4:00 pm)35 °F (7:00 am)
Humidity82.6 %93 % (8:30 pm)72 % (1:00 pm)
Barometer29.54 in29.76 in (1:00 am)29.44 in (3:00 pm)
Wind Speed17.5 mph26.5 mph (9:30 am)
Wind Gust35.7 mph (9:00 am)
Weather ElementAverage
Visibility7.3 mi
Wind DirectionS (182.5 °)

Weather ElementTotal
Precipitation---
Heating Degree Days23.1 (Base 65)
Averaged from 51 records on March 16, 2013
WEATHER CONDITIONS BREAKOUT
WIND DIRECTION BREAKOUT
WEATHER BY HOUR - MARCH 16, 2013
[ °C ]   °F
Local TimeTemperatureDewpointHumidityBarometerVisibilityWind DirectionWind SpeedGust SpeedPrecipitationEventsConditions
12:30 AM41.0 °F35.6 °F81 %29.74 in6.2 miSouth (190°)17.3 mph
1:00 AM41.0 °F36.0 °F74 %29.76 in37.0 miSouth (190°)17.3 mphClear
1:00 AM41.0 °F35.6 °F81 %29.74 in6.2 miSouth (190°)17.3 mph
1:30 AM41.0 °F35.6 °F81 %29.71 in6.2 miSouth (190°)19.6 mph
2:00 AM41.0 °F35.6 °F81 %29.71 in6.2 miSouth (190°)18.4 mph
2:30 AM41.0 °F35.6 °F81 %29.71 in6.2 miSouth (190°)18.4 mphMostly Cloudy
3:00 AM41.0 °F35.6 °F81 %29.68 in6.2 miSouth (190°)18.4 mph
3:30 AM41.0 °F35.6 °F81 %29.68 in6.2 miSouth (190°)17.3 mph
4:00 AM41.0 °F35.6 °F81 %29.65 in6.2 miSouth (190°)18.4 mphOvercast
4:30 AM41.0 °F35.6 °F81 %29.65 in6.2 miSouth (190°)16.1 mph
5:00 AM41.0 °F35.6 °F81 %29.65 in6.2 miSouth (190°)16.1 mph
5:30 AM41.0 °F35.6 °F81 %29.62 in6.2 miSouth (180°)18.4 mph
6:00 AM41.0 °F35.6 °F81 %29.62 in6.2 miSouth (190°)18.4 mph
6:30 AM41.0 °F35.6 °F81 %29.59 in6.2 miSouth (180°)18.4 mph
7:00 AM40.0 °F35.0 °F76 %29.62 in25.0 miSouth (180°)17.3 mphScattered Clouds
7:00 AM41.0 °F35.6 °F81 %29.59 in6.2 miSouth (180°)17.3 mph
7:30 AM41.0 °F35.6 °F81 %29.59 in6.2 miSouth (180°)18.4 mph
8:00 AM41.0 °F35.6 °F81 %29.56 in6.2 miSouth (190°)23.0 mph
8:30 AM41.0 °F35.6 °F81 %29.56 in6.2 miSouth (190°)24.2 mphMostly Cloudy
9:00 AM41.0 °F35.6 °F81 %29.56 in6.2 miSouth (180°)21.9 mph35.7 mphMostly Cloudy
9:30 AM41.0 °F35.6 °F81 %29.53 in6.2 miSouth (180°)26.5 mphMostly Cloudy
10:00 AM41.0 °F37.4 °F87 %29.56 in6.2 miSouth (180°)24.2 mphRainLight Rain
10:30 AM41.0 °F35.6 °F81 %29.53 in6.2 miSouth (170°)21.9 mphMostly Cloudy
11:00 AM42.8 °F35.6 °F76 %29.50 in6.2 miSouth (170°)18.4 mphMostly Cloudy
11:30 AM42.8 °F35.6 °F76 %29.50 in6.2 miSouth (180°)21.9 mphMostly Cloudy
12:00 PM42.8 °F35.6 °F76 %29.50 in6.2 miSouth (180°)21.9 mphOvercast
12:30 PM42.8 °F35.6 °F76 %29.50 in6.2 miSouth (180°)20.7 mph32.2 mphMostly Cloudy
1:00 PM42.0 °F36.0 °F72 %29.52 in12.0 miSouth (190°)20.7 mphRainLight Rain
1:00 PM42.8 °F35.6 °F76 %29.50 in6.2 miSouth (190°)20.7 mphRainLight Rain
1:30 PM41.0 °F35.6 °F81 %29.50 in6.2 miSouth (190°)23.0 mphRainLight Rain
2:00 PM41.0 °F37.4 °F87 %29.47 in6.2 miSouth (190°)20.7 mphRainLight Rain
2:30 PM41.0 °F37.4 °F87 %29.47 in6.2 miSouth (190°)17.3 mphRainLight Rain
3:00 PM41.0 °F37.4 °F87 %29.44 in6.2 miSouth (180°)24.2 mphRainLight Rain
3:30 PM41.0 °F37.4 °F87 %29.44 in6.2 miSouth (180°)20.7 mphOvercast
4:00 PM44.6 °F39.2 °F81 %29.44 in6.2 miSouth (190°)18.4 mph
4:30 PM44.6 °F39.2 °F81 %29.44 in6.2 miSouth (180°)18.4 mphMostly Cloudy
5:00 PM44.6 °F39.2 °F81 %29.44 in6.2 miSouth (180°)18.4 mphMostly Cloudy
5:30 PM42.8 °F39.2 °F87 %29.44 in6.2 miSouth (180°)15.0 mphMostly Cloudy
6:00 PM42.8 °F39.2 °F87 %29.44 in6.2 miSouth (180°)15.0 mph
6:30 PM42.8 °F39.2 °F87 %29.44 in6.2 miSouth (180°)13.8 mphMostly Cloudy
7:00 PM43.0 °F39.0 °F81 %29.46 in11.0 miSouth (180°)10.4 mphClear
7:00 PM42.8 °F39.2 °F87 %29.44 in6.2 miSouth (180°)10.4 mphMostly Cloudy
7:30 PM42.8 °F39.2 °F87 %29.44 in6.2 miSSE (160°)13.8 mphMostly Cloudy
8:00 PM41.0 °F37.4 °F87 %29.44 in6.2 miSouth (180°)13.8 mphLight Drizzle
8:30 PM41.0 °F39.2 °F93 %29.44 in6.2 miSSE (150°)10.4 mphMostly Cloudy
9:00 PM41.0 °F39.2 °F93 %29.44 in2.5 miSouth (180°)11.5 mphRainHeavy Rain
9:30 PM42.8 °F37.4 °F81 %29.44 in6.2 miSouth (190°)13.8 mphMostly Cloudy
10:00 PM41.0 °F37.4 °F87 %29.44 in6.2 miSouth (180°)8.1 mphMostly Cloudy
10:30 PM39.2 °F37.4 °F93 %29.44 in6.2 miSouth (180°)9.2 mph
11:00 PM39.2 °F37.4 °F93 %29.44 in6.2 miSouth (170°)8.1 mph
11:30 PM39.2 °F35.6 °F87 %29.44 in6.2 miSouth (180°)9.2 mphPartly Cloudy
Hourly data recorded from LFRK, located miles away from Caen, France







STORIES FROM OUR PARTNERS